Time,TemperatureF,DewpointF,PressureIn,WindDirection,WindDirectionDegrees,WindSpeedMPH,WindSpeedGustMPH,Humidity,HourlyPrecipIn,Conditions,Clouds,dailyrainin,SoftwareType,DateUTC
2013-02-03 00:02:00,22.0,18.0,30.09,NW,312,10.0,20.0,86,0.00,,,0.00,,2013-02-03 06:02:00,
2013-02-03 00:11:00,22.0,18.0,30.09,NW,312,10.0,20.0,86,0.00,,,0.00,,2013-02-03 06:11:00,
2013-02-03 00:21:00,21.0,17.0,30.10,WNW,282,9.0,16.0,86,0.00,,,0.00,,2013-02-03 06:21:00,
2013-02-03 00:32:00,20.0,16.0,30.11,NNW,331,8.0,14.0,86,0.00,,,0.00,,2013-02-03 06:32:00,
2013-02-03 00:41:00,20.0,16.0,30.11,NNW,331,8.0,14.0,86,0.00,,,0.00,,2013-02-03 06:41:00,
2013-02-03 00:52:00,19.0,15.0,30.12,WNW,282,7.0,15.0,83,0.00,,,0.00,,2013-02-03 06:52:00,
2013-02-03 01:01:00,18.0,13.0,30.12,NW,320,11.0,20.0,81,0.00,,,0.00,,2013-02-03 07:01:00,
2013-02-03 01:11:00,18.0,13.0,30.12,NW,320,11.0,20.0,81,0.00,,,0.00,,2013-02-03 07:11:00,
2013-02-03 01:21:00,17.0,12.0,30.13,NNW,335,8.0,17.0,82,0.00,,,0.00,,2013-02-03 07:21:00,
2013-02-03 01:31:00,17.0,13.0,30.14,NW,318,5.0,13.0,83,0.00,,,0.00,,2013-02-03 07:31:00,
2013-02-03 01:41:00,17.0,13.0,30.14,NW,318,5.0,13.0,83,0.00,,,0.00,,2013-02-03 07:41:00,
2013-02-03 01:52:00,17.0,13.0,30.14,NW,317,6.0,11.0,84,0.00,,,0.00,,2013-02-03 07:52:00,
2013-02-03 02:01:00,18.0,14.0,30.15,NW,318,7.0,13.0,84,0.00,,,0.00,,2013-02-03 08:01:00,
2013-02-03 02:11:00,18.0,14.0,30.15,NW,318,7.0,13.0,84,0.00,,,0.00,,2013-02-03 08:11:00,
2013-02-03 02:22:00,18.0,14.0,30.16,NNW,338,7.0,14.0,83,0.00,,,0.00,,2013-02-03 08:22:00,
2013-02-03 02:32:00,18.0,14.0,30.16,NW,324,6.0,13.0,84,0.00,,,0.00,,2013-02-03 08:32:00,
2013-02-03 02:41:00,18.0,14.0,30.16,NW,324,6.0,13.0,84,0.00,,,0.00,,2013-02-03 08:41:00,
2013-02-03 02:52:00,18.0,13.0,30.16,NNW,327,6.0,13.0,82,0.00,,,0.00,,2013-02-03 08:52:00,
2013-02-03 03:02:00,18.0,13.0,30.16,NNW,342,4.0,14.0,82,0.00,,,0.00,,2013-02-03 09:02:00,
2013-02-03 03:11:00,18.0,13.0,30.16,NNW,342,4.0,14.0,82,0.00,,,0.00,,2013-02-03 09:11:00,
2013-02-03 03:21:00,17.0,12.0,30.17,NW,309,7.0,19.0,80,0.00,,,0.00,,2013-02-03 09:21:00,
2013-02-03 03:31:00,16.0,11.0,30.17,NW,304,7.0,14.0,81,0.00,,,0.00,,2013-02-03 09:31:00,
2013-02-03 03:42:00,16.0,11.0,30.17,NW,304,7.0,14.0,81,0.00,,,0.00,,2013-02-03 09:42:00,
2013-02-03 03:51:00,15.0,11.0,30.17,NW,318,5.0,11.0,83,0.00,,,0.00,,2013-02-03 09:51:00,
2013-02-03 04:01:00,15.0,11.0,30.17,WNW,293,5.0,10.0,82,0.00,,,0.00,,2013-02-03 10:01:00,
2013-02-03 04:11:00,15.0,11.0,30.17,WNW,293,5.0,10.0,82,0.00,,,0.00,,2013-02-03 10:11:00,
2013-02-03 04:21:00,14.0,9.0,30.17,WNW,291,6.0,16.0,79,0.00,,,0.00,,2013-02-03 10:21:00,
2013-02-03 04:31:00,13.0,8.0,30.17,NW,320,6.0,11.0,81,0.00,,,0.00,,2013-02-03 10:31:00,
2013-02-03 04:42:00,13.0,8.0,30.17,NW,320,6.0,11.0,81,0.00,,,0.00,,2013-02-03 10:42:00,
2013-02-03 04:52:00,12.0,8.0,30.19,WNW,300,3.0,8.0,82,0.00,,,0.00,,2013-02-03 10:52:00,
2013-02-03 05:02:00,12.0,8.0,30.18,NW,321,3.0,9.0,83,0.00,,,0.00,,2013-02-03 11:02:00,
2013-02-03 05:11:00,12.0,8.0,30.18,NW,321,3.0,9.0,83,0.00,,,0.00,,2013-02-03 11:11:00,
2013-02-03 05:22:00,12.0,8.0,30.18,NW,309,6.0,11.0,83,0.00,,,0.00,,2013-02-03 11:22:00,
2013-02-03 05:32:00,12.0,8.0,30.18,NW,320,6.0,12.0,82,0.00,,,0.00,,2013-02-03 11:32:00,
2013-02-03 05:42:00,12.0,8.0,30.18,NW,320,6.0,12.0,82,0.00,,,0.00,,2013-02-03 11:42:00,
2013-02-03 05:52:00,12.0,8.0,30.19,NNE,27,5.0,9.0,83,0.00,,,0.00,,2013-02-03 11:52:00,
2013-02-03 06:02:00,12.0,8.0,30.19,NW,314,4.0,10.0,83,0.00,,,0.00,,2013-02-03 12:02:00,
2013-02-03 06:11:00,12.0,8.0,30.19,NW,314,4.0,10.0,83,0.00,,,0.00,,2013-02-03 12:11:00,
2013-02-03 06:22:00,11.0,7.0,30.19,NW,317,2.0,7.0,83,0.00,,,0.00,,2013-02-03 12:22:00,
2013-02-03 06:32:00,11.0,7.0,30.20,NW,311,0.0,4.0,84,0.00,,,0.00,,2013-02-03 12:32:00,
2013-02-03 06:42:00,11.0,7.0,30.20,NW,311,0.0,4.0,84,0.00,,,0.00,,2013-02-03 12:42:00,
2013-02-03 06:53:00,10.0,6.0,30.19,NNW,344,1.0,4.0,84,0.00,,,0.00,,2013-02-03 12:53:00,
2013-02-03 07:03:00,9.0,5.0,30.19,WSW,251,1.0,3.0,85,0.00,,,0.00,,2013-02-03 13:03:00,
2013-02-03 07:11:00,9.0,5.0,30.19,WSW,251,1.0,3.0,85,0.00,,,0.00,,2013-02-03 13:11:00,
2013-02-03 07:21:00,9.0,6.0,30.20,WNW,288,1.0,3.0,86,0.00,,,0.00,,2013-02-03 13:21:00,
2013-02-03 07:32:00,9.0,6.0,30.20,WNW,284,0.0,2.0,86,0.00,,,0.00,,2013-02-03 13:32:00,
2013-02-03 07:42:00,9.0,6.0,30.20,WNW,284,0.0,2.0,86,0.00,,,0.00,,2013-02-03 13:42:00,
2013-02-03 07:52:00,9.0,6.0,30.20,West,270,0.0,3.0,86,0.00,,,0.00,,2013-02-03 13:52:00,
2013-02-03 08:02:00,9.0,6.0,30.19,WNW,300,0.0,1.0,87,0.00,,,0.00,,2013-02-03 14:02:00,
2013-02-03 08:11:00,9.0,6.0,30.19,WNW,300,0.0,1.0,87,0.00,,,0.00,,2013-02-03 14:11:00,
2013-02-03 08:21:00,10.0,7.0,30.19,NW,311,0.0,2.0,87,0.00,,,0.00,,2013-02-03 14:21:00,
2013-02-03 08:32:00,11.0,7.0,30.19,WNW,284,0.0,3.0,85,0.00,,,0.00,,2013-02-03 14:32:00,
2013-02-03 08:42:00,11.0,7.0,30.19,WNW,284,0.0,3.0,85,0.00,,,0.00,,2013-02-03 14:42:00,
2013-02-03 08:52:00,12.0,8.0,30.19,WNW,293,0.0,2.0,84,0.00,,,0.00,,2013-02-03 14:52:00,
2013-02-03 09:03:00,13.0,9.0,30.19,West,274,1.0,2.0,83,0.00,,,0.00,,2013-02-03 15:03:00,
2013-02-03 09:11:00,13.0,9.0,30.19,West,274,1.0,2.0,83,0.00,,,0.00,,2013-02-03 15:11:00,
2013-02-03 09:22:00,15.0,11.0,30.19,West,274,1.0,3.0,83,0.00,,,0.00,,2013-02-03 15:22:00,
2013-02-03 09:33:00,15.0,10.0,30.19,WNW,299,1.0,3.0,81,0.00,,,0.00,,2013-02-03 15:33:00,
2013-02-03 09:42:00,15.0,10.0,30.19,WNW,299,1.0,3.0,81,0.00,,,0.00,,2013-02-03 15:42:00,
2013-02-03 09:51:00,15.0,10.0,30.19,WNW,291,1.0,6.0,80,0.00,,,0.00,,2013-02-03 15:51:00,
2013-02-03 10:02:00,15.0,10.0,30.19,NNW,332,1.0,4.0,80,0.00,,,0.00,,2013-02-03 16:02:00,
2013-02-03 10:11:00,15.0,10.0,30.19,NNW,332,1.0,4.0,80,0.00,,,0.00,,2013-02-03 16:11:00,
2013-02-03 10:22:00,16.0,11.0,30.20,WNW,290,1.0,3.0,80,0.00,,,0.00,,2013-02-03 16:22:00,
2013-02-03 10:32:00,16.0,10.0,30.20,West,281,1.0,4.0,78,0.00,,,0.00,,2013-02-03 16:32:00,
2013-02-03 10:42:00,16.0,10.0,30.20,West,281,1.0,4.0,78,0.00,,,0.00,,2013-02-03 16:42:00,
2013-02-03 10:52:00,16.0,11.0,30.20,WSW,246,0.0,3.0,80,0.00,,,0.00,,2013-02-03 16:52:00,
2013-02-03 11:02:00,16.0,11.0,30.19,West,271,1.0,2.0,80,0.00,,,0.00,,2013-02-03 17:02:00,
2013-02-03 11:11:00,16.0,11.0,30.19,West,271,1.0,2.0,80,0.00,,,0.00,,2013-02-03 17:11:00,
2013-02-03 11:22:00,16.0,10.0,30.20,West,270,1.0,4.0,78,0.00,,,0.00,,2013-02-03 17:22:00,
2013-02-03 11:32:00,17.0,11.0,30.19,WNW,282,0.0,2.0,78,0.00,,,0.00,,2013-02-03 17:32:00,
2013-02-03 11:42:00,17.0,11.0,30.19,WNW,282,0.0,2.0,78,0.00,,,0.00,,2013-02-03 17:42:00,
2013-02-03 11:52:00,17.0,11.0,30.19,West,266,0.0,2.0,78,0.00,,,0.00,,2013-02-03 17:52:00,
2013-02-03 12:03:00,18.0,12.0,30.19,West,276,1.0,5.0,76,0.00,,,0.00,,2013-02-03 18:03:00,
2013-02-03 12:12:00,18.0,12.0,30.19,West,276,1.0,5.0,76,0.00,,,0.00,,2013-02-03 18:12:00,
2013-02-03 12:23:00,19.0,13.0,30.17,SW,233,0.0,2.0,77,0.00,,,0.00,,2013-02-03 18:23:00,
2013-02-03 12:33:00,19.0,13.0,30.17,WSW,249,2.0,5.0,77,0.00,,,0.00,,2013-02-03 18:33:00,
2013-02-03 12:42:00,19.0,13.0,30.17,WSW,249,2.0,5.0,77,0.00,,,0.00,,2013-02-03 18:42:00,
2013-02-03 12:51:00,20.0,14.0,30.16,NW,304,0.0,4.0,76,0.00,,,0.00,,2013-02-03 18:51:00,
2013-02-03 13:02:00,20.0,13.0,30.14,SW,236,1.0,3.0,75,0.00,,,0.00,,2013-02-03 19:02:00,
2013-02-03 13:11:00,20.0,13.0,30.14,SW,236,1.0,3.0,75,0.00,,,0.00,,2013-02-03 19:11:00,
2013-02-03 13:22:00,21.0,14.0,30.13,West,267,0.0,3.0,75,0.00,,,0.00,,2013-02-03 19:22:00,
2013-02-03 13:32:00,21.0,14.0,30.12,WSW,245,1.0,3.0,75,0.00,,,0.00,,2013-02-03 19:32:00,
2013-02-03 13:42:00,21.0,14.0,30.12,WSW,245,1.0,3.0,75,0.00,,,0.00,,2013-02-03 19:42:00,
2013-02-03 13:51:00,22.0,14.0,30.10,WSW,241,1.0,4.0,72,0.00,,,0.00,,2013-02-03 19:51:00,
2013-02-03 14:01:00,23.0,16.0,30.10,South,185,0.0,4.0,74,0.00,,,0.00,,2013-02-03 20:01:00,
2013-02-03 14:12:00,23.0,16.0,30.10,South,185,0.0,4.0,74,0.00,,,0.00,,2013-02-03 20:12:00,
2013-02-03 14:21:00,25.0,17.0,30.08,South,188,1.0,7.0,72,0.00,,,0.00,,2013-02-03 20:21:00,
2013-02-03 14:33:00,25.0,18.0,30.07,ESE,121,1.0,6.0,73,0.00,,,0.00,,2013-02-03 20:33:00,
2013-02-03 14:42:00,25.0,18.0,30.07,ESE,121,1.0,6.0,73,0.00,,,0.00,,2013-02-03 20:42:00,
2013-02-03 14:52:00,25.0,19.0,30.07,SSE,156,2.0,5.0,76,0.00,,,0.00,,2013-02-03 20:52:00,
2013-02-03 15:03:00,25.0,18.0,30.06,South,177,3.0,7.0,75,0.00,,,0.00,,2013-02-03 21:03:00,
2013-02-03 15:11:00,25.0,18.0,30.06,South,177,3.0,7.0,75,0.00,,,0.00,,2013-02-03 21:11:00,
2013-02-03 15:21:00,25.0,19.0,30.06,SSE,156,3.0,7.0,76,0.00,,,0.00,,2013-02-03 21:21:00,
2013-02-03 15:32:00,25.0,19.0,30.06,SSE,149,2.0,5.0,77,0.00,,,0.00,,2013-02-03 21:32:00,
2013-02-03 15:42:00,25.0,19.0,30.06,SSE,149,2.0,5.0,77,0.00,,,0.00,,2013-02-03 21:42:00,
2013-02-03 15:51:00,25.0,19.0,30.05,SSE,155,5.0,8.0,77,0.00,,,0.00,,2013-02-03 21:51:00,
2013-02-03 16:01:00,26.0,20.0,30.04,SSE,165,1.0,5.0,79,0.00,,,0.00,,2013-02-03 22:01:00,
2013-02-03 16:11:00,26.0,20.0,30.04,SSE,165,1.0,5.0,79,0.00,,,0.00,,2013-02-03 22:11:00,
2013-02-03 16:21:00,27.0,21.0,30.03,South,174,2.0,8.0,78,0.00,,,0.00,,2013-02-03 22:21:00,
2013-02-03 16:32:00,27.0,21.0,30.02,SE,130,2.0,5.0,78,0.00,,,0.00,,2013-02-03 22:32:00,
2013-02-03 16:41:00,27.0,21.0,30.02,SE,130,2.0,5.0,78,0.00,,,0.00,,2013-02-03 22:41:00,
2013-02-03 16:51:00,27.0,21.0,30.01,SE,138,1.0,7.0,79,0.00,,,0.00,,2013-02-03 22:51:00,
2013-02-03 17:01:00,26.0,20.0,30.00,SE,135,3.0,6.0,79,0.00,,,0.00,,2013-02-03 23:01:00,
2013-02-03 17:12:00,26.0,20.0,30.00,SE,135,3.0,6.0,79,0.00,,,0.00,,2013-02-03 23:12:00,
2013-02-03 17:22:00,26.0,21.0,29.99,ESE,116,5.0,8.0,80,0.00,,,0.00,,2013-02-03 23:22:00,
2013-02-03 17:32:00,26.0,21.0,29.99,East,101,5.0,9.0,81,0.00,,,0.00,,2013-02-03 23:32:00,
2013-02-03 17:42:00,26.0,21.0,29.99,East,101,5.0,9.0,81,0.00,,,0.00,,2013-02-03 23:42:00,
2013-02-03 17:52:00,25.0,21.0,29.98,East,84,4.0,7.0,83,0.00,,,0.00,,2013-02-03 23:52:00,
2013-02-03 18:02:00,25.0,21.0,29.98,ENE,72,2.0,5.0,84,0.00,,,0.00,,2013-02-04 00:02:00,
2013-02-03 18:11:00,25.0,21.0,29.98,ENE,72,2.0,5.0,84,0.00,,,0.00,,2013-02-04 00:11:00,
2013-02-03 18:22:00,24.0,20.0,29.98,ENE,75,3.0,7.0,85,0.00,,,0.00,,2013-02-04 00:22:00,
2013-02-03 18:32:00,23.0,19.0,29.97,ENE,77,2.0,4.0,86,0.00,,,0.00,,2013-02-04 00:32:00,
2013-02-03 18:41:00,23.0,19.0,29.97,ENE,77,2.0,4.0,86,0.00,,,0.00,,2013-02-04 00:41:00,
2013-02-03 18:51:00,22.0,19.0,29.97,NNE,27,3.0,6.0,87,0.00,,,0.00,,2013-02-04 00:51:00,
2013-02-03 19:01:00,22.0,19.0,29.97,ENE,77,4.0,8.0,87,0.00,,,0.00,,2013-02-04 01:01:00,
2013-02-03 19:11:00,22.0,19.0,29.97,ENE,77,4.0,8.0,87,0.00,,,0.00,,2013-02-04 01:11:00,
2013-02-03 19:21:00,21.0,18.0,29.97,ENE,77,4.0,8.0,87,0.00,,,0.00,,2013-02-04 01:21:00,
2013-02-03 19:32:00,21.0,18.0,29.96,ENE,61,3.0,8.0,87,0.00,,,0.00,,2013-02-04 01:32:00,
2013-02-03 19:41:00,21.0,18.0,29.96,ENE,61,3.0,8.0,87,0.00,,,0.00,,2013-02-04 01:41:00,
2013-02-03 19:52:00,20.0,17.0,29.95,ENE,65,5.0,8.0,88,0.00,,,0.00,,2013-02-04 01:52:00,
2013-02-03 20:02:00,21.0,18.0,29.95,East,84,6.0,8.0,87,0.00,,,0.00,,2013-02-04 02:02:00,
2013-02-03 20:11:00,21.0,18.0,29.95,East,84,6.0,8.0,87,0.00,,,0.00,,2013-02-04 02:11:00,
2013-02-03 20:21:00,21.0,18.0,29.95,East,84,6.0,8.0,87,0.00,,,0.00,,2013-02-04 02:21:00,
2013-02-03 20:32:00,21.0,18.0,29.94,ESE,103,5.0,9.0,88,0.00,,,0.00,,2013-02-04 02:32:00,
2013-02-03 20:41:00,21.0,18.0,29.94,ESE,103,5.0,9.0,88,0.00,,,0.00,,2013-02-04 02:41:00,
2013-02-03 20:52:00,21.0,18.0,29.92,SE,136,4.0,8.0,89,0.00,,,0.00,,2013-02-04 02:52:00,
2013-02-03 21:02:00,21.0,18.0,29.92,ESE,107,6.0,10.0,89,0.00,,,0.00,,2013-02-04 03:02:00,
2013-02-03 21:11:00,21.0,18.0,29.92,ESE,107,6.0,10.0,89,0.00,,,0.00,,2013-02-04 03:11:00,
2013-02-03 21:21:00,21.0,18.0,29.91,SE,135,5.0,9.0,89,0.00,,,0.00,,2013-02-04 03:21:00,
2013-02-03 21:32:00,22.0,19.0,29.91,ESE,108,4.0,7.0,89,0.00,,,0.00,,2013-02-04 03:32:00,
2013-02-03 21:42:00,22.0,19.0,29.91,ESE,108,4.0,7.0,89,0.00,,,0.00,,2013-02-04 03:42:00,
2013-02-03 21:51:00,22.0,19.0,29.91,ESE,110,4.0,7.0,88,0.00,,,0.00,,2013-02-04 03:51:00,
2013-02-03 22:01:00,22.0,19.0,29.91,ESE,110,5.0,6.0,88,0.00,,,0.00,,2013-02-04 04:01:00,
2013-02-03 22:11:00,22.0,19.0,29.91,ESE,110,5.0,6.0,88,0.00,,,0.00,,2013-02-04 04:11:00,
2013-02-03 22:21:00,22.0,19.0,29.90,East,89,3.0,6.0,87,0.00,,,0.00,,2013-02-04 04:21:00,
2013-02-03 22:32:00,22.0,19.0,29.89,ESE,113,3.0,7.0,87,0.00,,,0.00,,2013-02-04 04:32:00,
2013-02-03 22:41:00,22.0,19.0,29.89,ESE,113,3.0,7.0,87,0.00,,,0.00,,2013-02-04 04:41:00,
2013-02-03 22:52:00,22.0,19.0,29.89,ESE,115,3.0,6.0,87,0.00,,,0.00,,2013-02-04 04:52:00,
2013-02-03 23:03:00,22.0,19.0,29.88,ESE,119,3.0,5.0,87,0.00,,,0.00,,2013-02-04 05:03:00,
2013-02-03 23:11:00,22.0,19.0,29.88,ESE,119,3.0,5.0,87,0.00,,,0.00,,2013-02-04 05:11:00,
2013-02-03 23:22:00,22.0,19.0,29.87,East,99,3.0,5.0,87,0.00,,,0.00,,2013-02-04 05:22:00,
2013-02-03 23:33:00,21.0,18.0,29.86,ESE,117,3.0,6.0,87,0.00,,,0.00,,2013-02-04 05:33:00,
2013-02-03 23:42:00,21.0,18.0,29.86,ESE,117,3.0,6.0,87,0.00,,,0.00,,2013-02-04 05:42:00,
2013-02-03 23:52:00,21.0,17.0,29.88,NE,54,0.0,3.0,86,0.00,,,0.00,,2013-02-04 05:52:00,